owner,sensor,date,latitude,longitude,vertical_datum,wind_speed,wind_to_direction,wind_speed_of_gust,qcFlag 
LUMCON,ioos:station:LUMCON:101:1,2016-11-01T13:45:00Z,29.2533,-90.6633,1.0,4.9,45.0,-9999.0,'1111122,1111122,1111122' 
LUMCON,ioos:station:LUMCON:101:1,2016-11-01T14:00:00Z,29.2533,-90.6633,1.0,2.6,63.0,-9999.0,'1111122,1111122,1111122' 
LUMCON,ioos:station:LUMCON:101:1,2016-11-01T14:15:00Z,29.2533,-90.6633,1.0,3.8,59.0,-9999.0,'1111122,1111122,1111122' 
LUMCON,ioos:station:LUMCON:101:1,2016-11-01T14:30:00Z,29.2533,-90.6633,1.0,4.5,79.0,-9999.0,'1111122,1111122,1111122' 
LUMCON,ioos:station:LUMCON:101:1,2016-11-01T14:45:00Z,29.2533,-90.6633,1.0,6.2,67.0,-9999.0,'1111122,1111122,1111122' 
LUMCON,ioos:station:LUMCON:101:1,2016-11-01T15:00:00Z,29.2533,-90.6633,1.0,5.3,77.0,-9999.0,'1111122,1111122,1111122' 
LUMCON,ioos:station:LUMCON:101:1,2016-11-01T15:15:00Z,29.2533,-90.6633,1.0,1.3,78.0,-9999.0,'1111122,1111122,1111122' 
LUMCON,ioos:station:LUMCON:101:1,2016-11-01T15:30:00Z,29.2533,-90.6633,1.0,2.7,81.0,-9999.0,'1111122,1111122,1111122' 
LUMCON,ioos:station:LUMCON:101:1,2016-11-01T15:45:00Z,29.2533,-90.6633,1.0,4.4,77.0,-9999.0,'1111122,1111122,1111122' 
LUMCON,ioos:station:LUMCON:101:1,2016-11-01T16:00:00Z,29.2533,-90.6633,1.0,5.2,61.0,-9999.0,'1111122,1111122,1111122' 
LUMCON,ioos:station:LUMCON:101:1,2016-11-01T16:15:00Z,29.2533,-90.6633,1.0,6.0,87.0,-9999.0,'1111122,1111122,1111122' 
LUMCON,ioos:station:LUMCON:101:1,2016-11-01T16:30:00Z,29.2533,-90.6633,1.0,4.4,85.0,-9999.0,'1111122,1111122,1111122' 
LUMCON,ioos:station:LUMCON:101:1,2016-11-01T16:45:00Z,29.2533,-90.6633,1.0,4.2,71.0,-9999.0,'1111122,1111122,1111122' 
LUMCON,ioos:station:LUMCON:101:1,2016-11-01T17:15:00Z,29.2533,-90.6633,1.0,5.8,84.0,-9999.0,'1111122,1111122,1111122' 
LUMCON,ioos:station:LUMCON:101:1,2016-11-01T17:30:00Z,29.2533,-90.6633,1.0,5.9,103.0,-9999.0,'1111122,1111122,1111122' 
LUMCON,ioos:station:LUMCON:101:1,2016-11-01T17:45:00Z,29.2533,-90.6633,1.0,5.4,95.0,-9999.0,'1111122,1111122,1111122' 
LUMCON,ioos:station:LUMCON:101:1,2016-11-01T18:00:00Z,29.2533,-90.6633,1.0,4.3,84.0,-9999.0,'1111122,1111122,1111122' 
LUMCON,ioos:station:LUMCON:101:1,2016-11-01T18:15:00Z,29.2533,-90.6633,1.0,3.5,87.0,-9999.0,'1111122,1111122,1111122' 
LUMCON,ioos:station:LUMCON:101:1,2016-11-01T18:30:00Z,29.2533,-90.6633,1.0,3.0,51.0,-9999.0,'1111122,1111122,1111122' 
LUMCON,ioos:station:LUMCON:101:1,2016-11-01T18:45:00Z,29.2533,-90.6633,1.0,5.2,79.0,-9999.0,'1111122,1111122,1111122' 
LUMCON,ioos:station:LUMCON:101:1,2016-11-01T19:00:00Z,29.2533,-90.6633,1.0,5.7,87.0,-9999.0,'1111122,1111122,1111122' 
LUMCON,ioos:station:LUMCON:101:1,2016-11-01T19:15:00Z,29.2533,-90.6633,1.0,5.1,88.0,-9999.0,'1111122,1111122,1111122' 
LUMCON,ioos:station:LUMCON:101:1,2016-11-01T19:30:00Z,29.2533,-90.6633,1.0,5.6,92.0,-9999.0,'1111122,1111122,1111122' 
LUMCON,ioos:station:LUMCON:101:1,2016-11-01T19:45:00Z,29.2533,-90.6633,1.0,5.7,76.0,-9999.0,'1111122,1111122,1111122' 
LUMCON,ioos:station:LUMCON:101:1,2016-11-01T20:00:00Z,29.2533,-90.6633,1.0,4.6,83.0,-9999.0,'1111122,1111122,1111122' 
LUMCON,ioos:station:LUMCON:101:1,2016-11-01T20:15:00Z,29.2533,-90.6633,1.0,5.4,94.0,-9999.0,'1111122,1111122,1111122' 
LUMCON,ioos:station:LUMCON:101:1,2016-11-01T20:30:00Z,29.2533,-90.6633,1.0,5.7,85.0,-9999.0,'1111122,1111122,1111122' 
LUMCON,ioos:station:LUMCON:101:1,2016-11-01T20:45:00Z,29.2533,-90.6633,1.0,6.7,74.0,-9999.0,'1111122,1111122,1111122' 
LUMCON,ioos:station:LUMCON:101:1,2016-11-01T21:00:00Z,29.2533,-90.6633,1.0,5.2,77.0,-9999.0,'1111122,1111122,1111122' 
LUMCON,ioos:station:LUMCON:101:1,2016-11-01T21:15:00Z,29.2533,-90.6633,1.0,5.6,78.0,-9999.0,'1111122,1111122,1111122' 
LUMCON,ioos:station:LUMCON:101:1,2016-11-01T21:30:00Z,29.2533,-90.6633,1.0,3.1,78.0,-9999.0,'1111122,1111122,1111122' 
LUMCON,ioos:station:LUMCON:101:1,2016-11-01T21:45:00Z,29.2533,-90.6633,1.0,4.2,95.0,-9999.0,'1111122,1111122,1111122' 
LUMCON,ioos:station:LUMCON:101:1,2016-11-01T22:00:00Z,29.2533,-90.6633,1.0,4.4,67.0,-9999.0,'1111122,1111122,1111122' 
LUMCON,ioos:station:LUMCON:101:1,2016-11-01T22:15:00Z,29.2533,-90.6633,1.0,6.1,83.0,-9999.0,'1111122,1111122,1111122' 
LUMCON,ioos:station:LUMCON:101:1,2016-11-01T22:30:00Z,29.2533,-90.6633,1.0,5.3,86.0,-9999.0,'1111122,1111122,1111122' 
LUMCON,ioos:station:LUMCON:101:1,2016-11-01T22:45:00Z,29.2533,-90.6633,1.0,6.9,88.0,-9999.0,'1111122,1111122,1111122' 
LUMCON,ioos:station:LUMCON:101:1,2016-11-01T23:00:00Z,29.2533,-90.6633,1.0,5.5,92.0,-9999.0,'1111122,1111122,1111122' 
LUMCON,ioos:station:LUMCON:101:1,2016-11-01T23:15:00Z,29.2533,-90.6633,1.0,5.7,77.0,-9999.0,'1111122,1111122,1111122' 
LUMCON,ioos:station:LUMCON:101:1,2016-11-01T23:30:00Z,29.2533,-90.6633,1.0,7.0,87.0,-9999.0,'1111122,1111122,1111122' 
LUMCON,ioos:station:LUMCON:101:1,2016-11-01T23:45:00Z,29.2533,-90.6633,1.0,6.0,78.0,-9999.0,'1111122,1111122,1111122' 
LUMCON,ioos:station:LUMCON:101:1,2016-11-02T00:00:00Z,29.2533,-90.6633,1.0,5.3,80.0,-9999.0,'1111122,1111122,1111122' 
LUMCON,ioos:station:LUMCON:101:1,2016-11-02T00:15:00Z,29.2533,-90.6633,1.0,4.0,84.0,-9999.0,'1111122,1111122,1111122' 
LUMCON,ioos:station:LUMCON:101:1,2016-11-02T00:30:00Z,29.2533,-90.6633,1.0,5.0,88.0,-9999.0,'1111122,1111122,1111122' 
LUMCON,ioos:station:LUMCON:101:1,2016-11-02T17:15:00Z,29.2533,-90.6633,1.0,3.1,100.0,-9999.0,'1111122,1111122,1111122' 
LUMCON,ioos:station:LUMCON:101:1,2016-11-02T17:30:00Z,29.2533,-90.6633,1.0,4.5,88.0,-9999.0,'1111122,1111122,1111122' 
LUMCON,ioos:station:LUMCON:101:1,2016-11-02T17:45:00Z,29.2533,-90.6633,1.0,3.6,95.0,-9999.0,'1111122,1111122,1111122' 
LUMCON,ioos:station:LUMCON:101:1,2016-11-02T18:00:00Z,29.2533,-90.6633,1.0,4.7,99.0,-9999.0,'1111122,1111122,1111122' 
LUMCON,ioos:station:LUMCON:101:1,2016-11-02T18:15:00Z,29.2533,-90.6633,1.0,4.9,94.0,-9999.0,'1111122,1111122,1111122' 
LUMCON,ioos:station:LUMCON:101:1,2016-11-02T18:30:00Z,29.2533,-90.6633,1.0,6.0,71.0,-9999.0,'1111122,1111122,1111122' 
LUMCON,ioos:station:LUMCON:101:1,2016-11-02T18:45:00Z,29.2533,-90.6633,1.0,4.3,103.0,-9999.0,'1111122,1111122,1111122' 
LUMCON,ioos:station:LUMCON:101:1,2016-11-02T19:00:00Z,29.2533,-90.6633,1.0,5.5,92.0,-9999.0,'1111122,1111122,1111122' 
LUMCON,ioos:station:LUMCON:101:1,2016-11-02T19:15:00Z,29.2533,-90.6633,1.0,3.6,80.0,-9999.0,'1111122,1111122,1111122' 
LUMCON,ioos:station:LUMCON:101:1,2016-11-02T19:30:00Z,29.2533,-90.6633,1.0,4.9,103.0,-9999.0,'1111122,1111122,1111122' 
LUMCON,ioos:station:LUMCON:101:1,2016-11-02T19:45:00Z,29.2533,-90.6633,1.0,4.2,90.0,-9999.0,'1111122,1111122,1111122' 
LUMCON,ioos:station:LUMCON:101:1,2016-11-02T20:00:00Z,29.2533,-90.6633,1.0,4.1,100.0,-9999.0,'1111122,1111122,1111122' 
LUMCON,ioos:station:LUMCON:101:1,2016-11-02T20:15:00Z,29.2533,-90.6633,1.0,4.4,88.0,-9999.0,'1111122,1111122,1111122' 
LUMCON,ioos:station:LUMCON:101:1,2016-11-02T20:30:00Z,29.2533,-90.6633,1.0,3.3,98.0,-9999.0,'1111122,1111122,1111122' 
LUMCON,ioos:station:LUMCON:101:1,2016-11-02T20:45:00Z,29.2533,-90.6633,1.0,4.6,94.0,-9999.0,'1111122,1111122,1111122' 
LUMCON,ioos:station:LUMCON:101:1,2016-11-02T21:00:00Z,29.2533,-90.6633,1.0,4.1,106.0,-9999.0,'1111122,1111122,1111122' 
LUMCON,ioos:station:LUMCON:101:1,2016-11-02T21:15:00Z,29.2533,-90.6633,1.0,4.4,87.0,-9999.0,'1111122,1111122,1111122' 
LUMCON,ioos:station:LUMCON:101:1,2016-11-02T21:30:00Z,29.2533,-90.6633,1.0,2.5,103.0,-9999.0,'1111122,1111122,1111122' 
LUMCON,ioos:station:LUMCON:101:1,2016-11-02T21:45:00Z,29.2533,-90.6633,1.0,3.3,82.0,-9999.0,'1111122,1111122,1111122' 
LUMCON,ioos:station:LUMCON:101:1,2016-11-02T22:00:00Z,29.2533,-90.6633,1.0,4.2,97.0,-9999.0,'1111122,1111122,1111122' 
LUMCON,ioos:station:LUMCON:101:1,2016-11-02T22:15:00Z,29.2533,-90.6633,1.0,5.6,85.0,-9999.0,'1111122,1111122,1111122' 
LUMCON,ioos:station:LUMCON:101:1,2016-11-02T22:30:00Z,29.2533,-90.6633,1.0,3.7,83.0,-9999.0,'1111122,1111122,1111122' 
LUMCON,ioos:station:LUMCON:101:1,2016-11-02T22:45:00Z,29.2533,-90.6633,1.0,4.7,92.0,-9999.0,'1111122,1111122,1111122' 
LUMCON,ioos:station:LUMCON:101:1,2016-11-02T23:00:00Z,29.2533,-90.6633,1.0,4.3,92.0,-9999.0,'1111122,1111122,1111122' 
LUMCON,ioos:station:LUMCON:101:1,2016-11-02T23:15:00Z,29.2533,-90.6633,1.0,5.1,82.0,-9999.0,'1111122,1111122,1111122' 
LUMCON,ioos:station:LUMCON:101:1,2016-11-02T23:30:00Z,29.2533,-90.6633,1.0,6.3,88.0,-9999.0,'1111122,1111122,1111122' 
LUMCON,ioos:station:LUMCON:101:1,2016-11-02T23:45:00Z,29.2533,-90.6633,1.0,3.4,73.0,-9999.0,'1111122,1111122,1111122' 
LUMCON,ioos:station:LUMCON:101:1,2016-11-03T00:00:00Z,29.2533,-90.6633,1.0,4.6,75.0,-9999.0,'1111122,1111122,1111122' 
LUMCON,ioos:station:LUMCON:101:1,2016-11-03T00:15:00Z,29.2533,-90.6633,1.0,4.3,83.0,-9999.0,'1111122,1111122,1111122' 
LUMCON,ioos:station:LUMCON:101:1,2016-11-03T00:30:00Z,29.2533,-90.6633,1.0,4.2,94.0,-9999.0,'1111122,1111122,1111122' 
LUMCON,ioos:station:LUMCON:101:1,2016-11-03T00:45:00Z,29.2533,-90.6633,1.0,4.6,78.0,-9999.0,'1111122,1111122,1111122' 
LUMCON,ioos:station:LUMCON:101:1,2016-11-03T01:00:00Z,29.2533,-90.6633,1.0,3.1,91.0,-9999.0,'1111122,1111122,1111122' 
LUMCON,ioos:station:LUMCON:101:1,2016-11-03T01:15:00Z,29.2533,-90.6633,1.0,3.7,91.0,-9999.0,'1111122,1111122,1111122' 
LUMCON,ioos:station:LUMCON:101:1,2016-11-03T01:30:00Z,29.2533,-90.6633,1.0,4.4,82.0,-9999.0,'1111122,1111122,1111122' 
LUMCON,ioos:station:LUMCON:101:1,2016-11-03T01:45:00Z,29.2533,-90.6633,1.0,5.3,91.0,-9999.0,'1111122,1111122,1111122' 
LUMCON,ioos:station:LUMCON:101:1,2016-11-03T02:00:00Z,29.2533,-90.6633,1.0,4.0,93.0,-9999.0,'1111122,1111122,1111122' 
LUMCON,ioos:station:LUMCON:101:1,2016-11-03T02:15:00Z,29.2533,-90.6633,1.0,5.1,77.0,-9999.0,'1111122,1111122,1111122' 
LUMCON,ioos:station:LUMCON:101:1,2016-11-03T02:30:00Z,29.2533,-90.6633,1.0,4.6,79.0,-9999.0,'1111122,1111122,1111122' 
LUMCON,ioos:station:LUMCON:101:1,2016-11-03T02:45:00Z,29.2533,-90.6633,1.0,4.9,76.0,-9999.0,'1111122,1111122,1111122' 
LUMCON,ioos:station:LUMCON:101:1,2016-11-03T03:00:00Z,29.2533,-90.6633,1.0,4.7,84.0,-9999.0,'1111122,1111122,1111122' 
LUMCON,ioos:station:LUMCON:101:1,2016-11-03T03:15:00Z,29.2533,-90.6633,1.0,3.8,78.0,-9999.0,'1111122,1111122,1111122' 
LUMCON,ioos:station:LUMCON:101:1,2016-11-03T03:30:00Z,29.2533,-90.6633,1.0,3.9,88.0,-9999.0,'1111122,1111122,1111122' 
LUMCON,ioos:station:LUMCON:101:1,2016-11-03T03:45:00Z,29.2533,-90.6633,1.0,3.4,74.0,-9999.0,'1111122,1111122,1111122' 
LUMCON,ioos:station:LUMCON:101:1,2016-11-03T04:00:00Z,29.2533,-90.6633,1.0,3.5,89.0,-9999.0,'1111122,1111122,1111122' 
LUMCON,ioos:station:LUMCON:101:1,2016-11-03T04:15:00Z,29.2533,-90.6633,1.0,3.5,78.0,-9999.0,'1111122,1111122,1111122' 
LUMCON,ioos:station:LUMCON:101:1,2016-11-03T04:30:00Z,29.2533,-90.6633,1.0,4.7,85.0,-9999.0,'1111122,1111122,1111122' 
LUMCON,ioos:station:LUMCON:101:1,2016-11-03T04:45:00Z,29.2533,-90.6633,1.0,3.8,76.0,-9999.0,'1111122,1111122,1111122' 
LUMCON,ioos:station:LUMCON:101:1,2016-11-03T05:00:00Z,29.2533,-90.6633,1.0,3.2,70.0,-9999.0,'1111122,1111122,1111122' 
LUMCON,ioos:station:LUMCON:101:1,2016-11-03T05:15:00Z,29.2533,-90.6633,1.0,4.3,82.0,-9999.0,'1111122,1111122,1111122' 
LUMCON,ioos:station:LUMCON:101:1,2016-11-03T05:30:00Z,29.2533,-90.6633,1.0,6.3,87.0,-9999.0,'1111122,1111122,1111122' 
LUMCON,ioos:station:LUMCON:101:1,2016-11-03T05:45:00Z,29.2533,-90.6633,1.0,4.3,80.0,-9999.0,'1111122,1111122,1111122' 
LUMCON,ioos:station:LUMCON:101:1,2016-11-03T06:00:00Z,29.2533,-90.6633,1.0,3.8,76.0,-9999.0,'1111122,1111122,1111122' 
LUMCON,ioos:station:LUMCON:101:1,2016-11-03T06:15:00Z,29.2533,-90.6633,1.0,4.4,82.0,-9999.0,'1111122,1111122,1111122' 
LUMCON,ioos:station:LUMCON:101:1,2016-11-03T06:30:00Z,29.2533,-90.6633,1.0,3.0,73.0,-9999.0,'1111122,1111122,1111122' 
LUMCON,ioos:station:LUMCON:101:1,2016-11-03T06:45:00Z,29.2533,-90.6633,1.0,2.9,82.0,-9999.0,'1111122,1111122,1111122' 
LUMCON,ioos:station:LUMCON:101:1,2016-11-03T07:00:00Z,29.2533,-90.6633,1.0,4.1,77.0,-9999.0,'1111122,1111122,1111122' 
LUMCON,ioos:station:LUMCON:101:1,2016-11-03T07:15:00Z,29.2533,-90.6633,1.0,3.0,82.0,-9999.0,'1111122,1111122,1111122' 
LUMCON,ioos:station:LUMCON:101:1,2016-11-03T07:30:00Z,29.2533,-90.6633,1.0,2.8,83.0,-9999.0,'1111122,1111122,1111122' 
LUMCON,ioos:station:LUMCON:101:1,2016-11-03T07:45:00Z,29.2533,-90.6633,1.0,4.3,78.0,-9999.0,'1111122,1111122,1111122' 
LUMCON,ioos:station:LUMCON:101:1,2016-11-03T08:00:00Z,29.2533,-90.6633,1.0,3.2,87.0,-9999.0,'1111122,1111122,1111122' 
LUMCON,ioos:station:LUMCON:101:1,2016-11-03T08:15:00Z,29.2533,-90.6633,1.0,3.5,76.0,-9999.0,'1111122,1111122,1111122' 
LUMCON,ioos:station:LUMCON:101:1,2016-11-03T08:30:00Z,29.2533,-90.6633,1.0,4.0,72.0,-9999.0,'1111122,1111122,1111122' 
LUMCON,ioos:station:LUMCON:101:1,2016-11-03T08:45:00Z,29.2533,-90.6633,1.0,2.9,66.0,-9999.0,'1111122,1111122,1111122' 
LUMCON,ioos:station:LUMCON:101:1,2016-11-03T09:00:00Z,29.2533,-90.6633,1.0,2.9,74.0,-9999.0,'1111122,1111122,1111122' 
LUMCON,ioos:station:LUMCON:101:1,2016-11-03T09:15:00Z,29.2533,-90.6633,1.0,4.1,76.0,-9999.0,'1111122,1111122,1111122' 
LUMCON,ioos:station:LUMCON:101:1,2016-11-03T09:30:00Z,29.2533,-90.6633,1.0,3.3,71.0,-9999.0,'1111122,1111122,1111122' 
LUMCON,ioos:station:LUMCON:101:1,2016-11-03T09:45:00Z,29.2533,-90.6633,1.0,2.6,81.0,-9999.0,'1111122,1111122,1111122' 
LUMCON,ioos:station:LUMCON:101:1,2016-11-03T10:00:00Z,29.2533,-90.6633,1.0,2.3,59.0,-9999.0,'1111122,1111122,1111122' 
LUMCON,ioos:station:LUMCON:101:1,2016-11-03T10:15:00Z,29.2533,-90.6633,1.0,3.3,50.0,-9999.0,'1111122,1111122,1111122' 
LUMCON,ioos:station:LUMCON:101:1,2016-11-03T10:30:00Z,29.2533,-90.6633,1.0,2.6,56.0,-9999.0,'1111122,1111122,1111122' 
LUMCON,ioos:station:LUMCON:101:1,2016-11-03T10:45:00Z,29.2533,-90.6633,1.0,1.4,49.0,-9999.0,'1111122,1111122,1111122' 
LUMCON,ioos:station:LUMCON:101:1,2016-11-03T11:00:00Z,29.2533,-90.6633,1.0,2.8,52.0,-9999.0,'1111122,1111122,1111122' 
LUMCON,ioos:station:LUMCON:101:1,2016-11-03T11:15:00Z,29.2533,-90.6633,1.0,2.4,35.0,-9999.0,'1111122,1111122,1111122' 
LUMCON,ioos:station:LUMCON:101:1,2016-11-03T11:30:00Z,29.2533,-90.6633,1.0,3.7,43.0,-9999.0,'1111122,1111122,1111122' 
LUMCON,ioos:station:LUMCON:101:1,2016-11-03T11:45:00Z,29.2533,-90.6633,1.0,3.2,37.0,-9999.0,'1111122,1111122,1111122' 
LUMCON,ioos:station:LUMCON:101:1,2016-11-03T12:00:00Z,29.2533,-90.6633,1.0,2.9,39.0,-9999.0,'1111122,1111122,1111122' 
LUMCON,ioos:station:LUMCON:101:1,2016-11-03T12:15:00Z,29.2533,-90.6633,1.0,2.4,38.0,-9999.0,'1111122,1111122,1111122' 
LUMCON,ioos:station:LUMCON:101:1,2016-11-03T12:30:00Z,29.2533,-90.6633,1.0,2.9,48.0,-9999.0,'1111122,1111122,1111122' 
LUMCON,ioos:station:LUMCON:101:1,2016-11-03T12:45:00Z,29.2533,-90.6633,1.0,2.3,25.0,-9999.0,'1111122,1111122,1111122' 
LUMCON,ioos:station:LUMCON:101:1,2016-11-03T13:00:00Z,29.2533,-90.6633,1.0,2.5,3.0,-9999.0,'1111122,1111122,1111122' 
LUMCON,ioos:station:LUMCON:101:1,2016-11-03T13:15:00Z,29.2533,-90.6633,1.0,3.5,20.0,-9999.0,'1111122,1111122,1111122' 
LUMCON,ioos:station:LUMCON:101:1,2016-11-03T13:30:00Z,29.2533,-90.6633,1.0,5.2,17.0,-9999.0,'1111122,1111122,1111122' 
LUMCON,ioos:station:LUMCON:101:1,2016-11-03T13:45:00Z,29.2533,-90.6633,1.0,4.4,31.0,-9999.0,'1111122,1111122,1111122' 
LUMCON,ioos:station:LUMCON:101:1,2016-11-03T14:00:00Z,29.2533,-90.6633,1.0,3.7,25.0,-9999.0,'1111122,1111122,1111122' 
LUMCON,ioos:station:LUMCON:101:1,2016-11-03T14:15:00Z,29.2533,-90.6633,1.0,5.3,57.0,-9999.0,'1111122,1111122,1111122' 
LUMCON,ioos:station:LUMCON:101:1,2016-11-03T14:30:00Z,29.2533,-90.6633,1.0,3.0,36.0,-9999.0,'1111122,1111122,1111122' 
LUMCON,ioos:station:LUMCON:101:1,2016-11-03T14:45:00Z,29.2533,-90.6633,1.0,4.5,39.0,-9999.0,'1111122,1111122,1111122' 
LUMCON,ioos:station:LUMCON:101:1,2016-11-03T15:00:00Z,29.2533,-90.6633,1.0,5.1,47.0,-9999.0,'1111122,1111122,1111122' 
LUMCON,ioos:station:LUMCON:101:1,2016-11-03T15:15:00Z,29.2533,-90.6633,1.0,5.2,49.0,-9999.0,'1111122,1111122,1111122' 
LUMCON,ioos:station:LUMCON:101:1,2016-11-03T15:30:00Z,29.2533,-90.6633,1.0,2.9,45.0,-9999.0,'1111122,1111122,1111122' 
LUMCON,ioos:station:LUMCON:101:1,2016-11-03T15:45:00Z,29.2533,-90.6633,1.0,3.6,37.0,-9999.0,'1111122,1111122,1111122' 
LUMCON,ioos:station:LUMCON:101:1,2016-11-03T16:00:00Z,29.2533,-90.6633,1.0,2.7,84.0,-9999.0,'1111122,1111122,1111122' 
LUMCON,ioos:station:LUMCON:101:1,2016-11-03T16:15:00Z,29.2533,-90.6633,1.0,2.9,56.0,-9999.0,'1111122,1111122,1111122' 
LUMCON,ioos:station:LUMCON:101:1,2016-11-03T16:30:00Z,29.2533,-90.6633,1.0,4.3,60.0,-9999.0,'1111122,1111122,1111122' 
LUMCON,ioos:station:LUMCON:101:1,2016-11-03T16:45:00Z,29.2533,-90.6633,1.0,2.6,28.0,-9999.0,'1111122,1111122,1111122' 
LUMCON,ioos:station:LUMCON:101:1,2016-11-03T17:00:00Z,29.2533,-90.6633,1.0,2.4,84.0,-9999.0,'1111122,1111122,1111122' 
LUMCON,ioos:station:LUMCON:101:1,2016-11-03T17:15:00Z,29.2533,-90.6633,1.0,3.7,45.0,-9999.0,'1111122,1111122,1111122' 
LUMCON,ioos:station:LUMCON:101:1,2016-11-03T17:30:00Z,29.2533,-90.6633,1.0,4.3,76.0,-9999.0,'1111122,1111122,1111122' 
LUMCON,ioos:station:LUMCON:101:1,2016-11-03T17:45:00Z,29.2533,-90.6633,1.0,4.4,44.0,-9999.0,'1111122,1111122,1111122' 
LUMCON,ioos:station:LUMCON:101:1,2016-11-03T18:00:00Z,29.2533,-90.6633,1.0,4.5,68.0,-9999.0,'1111122,1111122,1111122' 
LUMCON,ioos:station:LUMCON:101:1,2016-11-03T18:15:00Z,29.2533,-90.6633,1.0,3.5,73.0,-9999.0,'1111122,1111122,1111122' 
LUMCON,ioos:station:LUMCON:101:1,2016-11-03T18:30:00Z,29.2533,-90.6633,1.0,3.6,43.0,-9999.0,'1111122,1111122,1111122' 
LUMCON,ioos:station:LUMCON:101:1,2016-11-03T18:45:00Z,29.2533,-90.6633,1.0,2.0,84.0,-9999.0,'1111122,1111122,1111122' 
LUMCON,ioos:station:LUMCON:101:1,2016-11-03T19:00:00Z,29.2533,-90.6633,1.0,4.4,81.0,-9999.0,'1111122,1111122,1111122' 
LUMCON,ioos:station:LUMCON:101:1,2016-11-03T19:15:00Z,29.2533,-90.6633,1.0,4.3,44.0,-9999.0,'1111122,1111122,1111122' 
LUMCON,ioos:station:LUMCON:101:1,2016-11-03T19:30:00Z,29.2533,-90.6633,1.0,4.7,38.0,-9999.0,'1111122,1111122,1111122' 
LUMCON,ioos:station:LUMCON:101:1,2016-11-03T19:45:00Z,29.2533,-90.6633,1.0,4.4,65.0,-9999.0,'1111122,1111122,1111122' 
LUMCON,ioos:station:LUMCON:101:1,2016-11-03T20:00:00Z,29.2533,-90.6633,1.0,4.4,72.0,-9999.0,'1111122,1111122,1111122' 
LUMCON,ioos:station:LUMCON:101:1,2016-11-03T20:15:00Z,29.2533,-90.6633,1.0,3.8,69.0,-9999.0,'1111122,1111122,1111122' 
LUMCON,ioos:station:LUMCON:101:1,2016-11-03T20:30:00Z,29.2533,-90.6633,1.0,3.9,80.0,-9999.0,'1111122,1111122,1111122' 
LUMCON,ioos:station:LUMCON:101:1,2016-11-03T20:45:00Z,29.2533,-90.6633,1.0,3.4,92.0,-9999.0,'1111122,1111122,1111122' 
LUMCON,ioos:station:LUMCON:101:1,2016-11-03T21:00:00Z,29.2533,-90.6633,1.0,2.6,82.0,-9999.0,'1111122,1111122,1111122' 
LUMCON,ioos:station:LUMCON:101:1,2016-11-03T21:15:00Z,29.2533,-90.6633,1.0,2.9,70.0,-9999.0,'1111122,1111122,1111122' 
LUMCON,ioos:station:LUMCON:101:1,2016-11-03T21:30:00Z,29.2533,-90.6633,1.0,3.2,112.0,-9999.0,'1111122,1111122,1111122' 
LUMCON,ioos:station:LUMCON:101:1,2016-11-03T21:45:00Z,29.2533,-90.6633,1.0,3.7,99.0,-9999.0,'1111122,1111122,1111122' 
LUMCON,ioos:station:LUMCON:101:1,2016-11-03T22:00:00Z,29.2533,-90.6633,1.0,2.2,108.0,-9999.0,'1111122,1111122,1111122' 
LUMCON,ioos:station:LUMCON:101:1,2016-11-03T22:15:00Z,29.2533,-90.6633,1.0,3.1,101.0,-9999.0,'1111122,1111122,1111122' 
LUMCON,ioos:station:LUMCON:101:1,2016-11-03T22:30:00Z,29.2533,-90.6633,1.0,2.9,95.0,-9999.0,'1111122,1111122,1111122' 
LUMCON,ioos:station:LUMCON:101:1,2016-11-03T22:45:00Z,29.2533,-90.6633,1.0,1.6,106.0,-9999.0,'1111122,1111122,1111122' 
LUMCON,ioos:station:LUMCON:101:1,2016-11-03T23:00:00Z,29.2533,-90.6633,1.0,3.1,102.0,-9999.0,'1111122,1111122,1111122' 
LUMCON,ioos:station:LUMCON:101:1,2016-11-03T23:15:00Z,29.2533,-90.6633,1.0,1.7,85.0,-9999.0,'1111122,1111122,1111122' 
LUMCON,ioos:station:LUMCON:101:1,2016-11-03T23:30:00Z,29.2533,-90.6633,1.0,2.1,49.0,-9999.0,'1111122,1111122,1111122' 
LUMCON,ioos:station:LUMCON:101:1,2016-11-03T23:45:00Z,29.2533,-90.6633,1.0,0.8,87.0,-9999.0,'1111122,1111122,1111122' 
LUMCON,ioos:station:LUMCON:101:1,2016-11-04T00:00:00Z,29.2533,-90.6633,1.0,1.7,72.0,-9999.0,'1111122,1111122,1111122' 
LUMCON,ioos:station:LUMCON:101:1,2016-11-04T00:15:00Z,29.2533,-90.6633,1.0,2.2,79.0,-9999.0,'1111122,1111122,1111122' 
LUMCON,ioos:station:LUMCON:101:1,2016-11-04T00:30:00Z,29.2533,-90.6633,1.0,1.5,76.0,-9999.0,'1111122,1111122,1111122' 
LUMCON,ioos:station:LUMCON:101:1,2016-11-04T00:45:00Z,29.2533,-90.6633,1.0,1.8,73.0,-9999.0,'1111122,1111122,1111122' 
LUMCON,ioos:station:LUMCON:101:1,2016-11-04T01:00:00Z,29.2533,-90.6633,1.0,1.2,72.0,-9999.0,'1111122,1111122,1111122' 
LUMCON,ioos:station:LUMCON:101:1,2016-11-04T01:15:00Z,29.2533,-90.6633,1.0,1.0,72.0,-9999.0,'1111122,1111122,1111122' 
LUMCON,ioos:station:LUMCON:101:1,2016-11-04T01:30:00Z,29.2533,-90.6633,1.0,2.5,50.0,-9999.0,'1111122,1111122,1111122' 
LUMCON,ioos:station:LUMCON:101:1,2016-11-04T01:45:00Z,29.2533,-90.6633,1.0,1.2,62.0,-9999.0,'1111122,1111122,1111122' 
LUMCON,ioos:station:LUMCON:101:1,2016-11-04T02:00:00Z,29.2533,-90.6633,1.0,2.2,61.0,-9999.0,'1111122,1111122,1111122' 
LUMCON,ioos:station:LUMCON:101:1,2016-11-04T02:15:00Z,29.2533,-90.6633,1.0,2.1,45.0,-9999.0,'1111122,1111122,1111122' 
LUMCON,ioos:station:LUMCON:101:1,2016-11-04T02:30:00Z,29.2533,-90.6633,1.0,2.3,75.0,-9999.0,'1111122,1111122,1111122' 
LUMCON,ioos:station:LUMCON:101:1,2016-11-04T02:45:00Z,29.2533,-90.6633,1.0,1.2,54.0,-9999.0,'1111122,1111122,1111122' 
LUMCON,ioos:station:LUMCON:101:1,2016-11-04T03:00:00Z,29.2533,-90.6633,1.0,1.9,61.0,-9999.0,'1111122,1111122,1111122' 
LUMCON,ioos:station:LUMCON:101:1,2016-11-04T03:15:00Z,29.2533,-90.6633,1.0,1.9,53.0,-9999.0,'1111122,1111122,1111122' 
LUMCON,ioos:station:LUMCON:101:1,2016-11-04T03:30:00Z,29.2533,-90.6633,1.0,2.1,62.0,-9999.0,'1111122,1111122,1111122' 
LUMCON,ioos:station:LUMCON:101:1,2016-11-04T03:45:00Z,29.2533,-90.6633,1.0,2.2,74.0,-9999.0,'1111122,1111122,1111122' 
LUMCON,ioos:station:LUMCON:101:1,2016-11-04T04:00:00Z,29.2533,-90.6633,1.0,1.9,88.0,-9999.0,'1111122,1111122,1111122' 
LUMCON,ioos:station:LUMCON:101:1,2016-11-04T04:15:00Z,29.2533,-90.6633,1.0,2.0,68.0,-9999.0,'1111122,1111122,1111122' 
LUMCON,ioos:station:LUMCON:101:1,2016-11-04T04:30:00Z,29.2533,-90.6633,1.0,2.2,87.0,-9999.0,'1111122,1111122,1111122' 
LUMCON,ioos:station:LUMCON:101:1,2016-11-04T04:45:00Z,29.2533,-90.6633,1.0,1.7,78.0,-9999.0,'1111122,1111122,1111122' 
LUMCON,ioos:station:LUMCON:101:1,2016-11-04T05:00:00Z,29.2533,-90.6633,1.0,1.1,60.0,-9999.0,'1111122,1111122,1111122' 
LUMCON,ioos:station:LUMCON:101:1,2016-11-04T05:15:00Z,29.2533,-90.6633,1.0,2.0,69.0,-9999.0,'1111122,1111122,1111122' 
LUMCON,ioos:station:LUMCON:101:1,2016-11-04T05:30:00Z,29.2533,-90.6633,1.0,1.7,78.0,-9999.0,'1111122,1111122,1111122' 
LUMCON,ioos:station:LUMCON:101:1,2016-11-04T05:45:00Z,29.2533,-90.6633,1.0,1.4,68.0,-9999.0,'1111122,1111122,1111122' 
LUMCON,ioos:station:LUMCON:101:1,2016-11-04T06:00:00Z,29.2533,-90.6633,1.0,0.7,67.0,-9999.0,'1111122,1111122,1111122' 
LUMCON,ioos:station:LUMCON:101:1,2016-11-04T06:15:00Z,29.2533,-90.6633,1.0,1.3,73.0,-9999.0,'1111122,1111122,1111122' 
LUMCON,ioos:station:LUMCON:101:1,2016-11-04T06:30:00Z,29.2533,-90.6633,1.0,1.0,77.0,-9999.0,'1111122,1111122,1111122' 
LUMCON,ioos:station:LUMCON:101:1,2016-11-04T06:45:00Z,29.2533,-90.6633,1.0,1.0,80.0,-9999.0,'1111122,1111122,1111122' 
LUMCON,ioos:station:LUMCON:101:1,2016-11-04T07:00:00Z,29.2533,-90.6633,1.0,0.4,71.0,-9999.0,'1111122,1111122,1111122' 
LUMCON,ioos:station:LUMCON:101:1,2016-11-04T07:15:00Z,29.2533,-90.6633,1.0,0.2,325.0,-9999.0,'1111122,1111122,1111122' 
LUMCON,ioos:station:LUMCON:101:1,2016-11-04T07:30:00Z,29.2533,-90.6633,1.0,0.5,351.0,-9999.0,'1111122,1111122,1111122' 
LUMCON,ioos:station:LUMCON:101:1,2016-11-04T07:45:00Z,29.2533,-90.6633,1.0,0.8,341.0,-9999.0,'1111122,1111122,1111122' 
LUMCON,ioos:station:LUMCON:101:1,2016-11-04T08:00:00Z,29.2533,-90.6633,1.0,1.4,325.0,-9999.0,'1111122,1111122,1111122' 
LUMCON,ioos:station:LUMCON:101:1,2016-11-04T08:15:00Z,29.2533,-90.6633,1.0,1.3,351.0,-9999.0,'1111122,1111122,1111122' 